Aberdeen, SD

6:13 PM CDT on September 24, 2017 (GMT -0500)
Aberdeen Regional

Weather History for KABR - March, 2014

Change the Weather History Date:

Saturday, March 1, 2014

  Actual Average Record
Temperature  
Mean Temperature -7 °F 23 °F  
Max Temperature 0 °F 33 °F 73 °F (1992)
Min Temperature -14 °F 13 °F -29 °F (1962)
Degree Days  
Heating Degree Days 72 42  
Month to date heating degree days 72 42  
Since 1 July heating degree days 7231 6505  
Cooling Degree Days 0 0  
Month to date cooling degree days 0 0  
Year to date cooling degree days 0 0  
Moisture  
Dew Point -19 °F    
Average Humidity 59    
Maximum Humidity 72    
Minimum Humidity 45    
Precipitation  
Precipitation 0.00 in 0.03 in 0.36 in (1976)
Month to date precipitation 0.00 0.03  
Year to date precipitation 0.44 1.05  
Snow  
Snow 0.00 in 0.30 in 3.70 in (1976)
Month to date snowfall 0.0 0.3  
Since 1 July snowfall 24.4 28.1  
Snow Depth T in    
Sea Level Pressure  
Sea Level Pressure 30.61 in    
Wind  
Wind Speed 15 mph (NNW)    
Max Wind Speed 23 mph    
Max Gust Speed 27 mph    
Visibility 10 miles    
Events      
T = Trace of Precipitation, MM = Missing Value Source: NWS Daily Summary

Daily Weather History Graph

Daily Weather History Graph

Search for Another Location

Airport or City:

Trip Planner

Search our weather history database for the weather conditions in past years. The results will help you decide how hot, cold, wet, or windy it might be!

Date:

Astronomy

Mar. 01, 2014 Rise Set
Actual Time 7:11 AM CST 6:20 PM CST
Civil Twilight 6:42 AM CST 6:50 PM CST
Nautical Twilight 6:08 AM CST 7:24 PM CST
Astronomical Twilight 5:33 AM CST 7:59 PM CST
Moon 7:03 AM CST (3/1) 7:14 PM CST (3/1)
Length of Visible Light 12h 08m
Length of Day
11h 08m
New Moon, 0% of the Moon is Illuminated
Mar 1
New Moon
Mar 8
First Quarter
Mar 16
Full
Mar 23
Last Quarter
Mar 30
New

Hourly Weather History & Observations

Time (CST) Temp. Windchill Dew Point Humidity Pressure Visibility Wind Dir Wind Speed Gust Speed Precip Events Conditions
12:19 AM -0.9 °F -17.4 °F -7.1 °F 75% 30.34 in 10.0 mi North 10.4 mph - N/A   Mostly Cloudy
12:53 AM -0.9 °F -18.3 °F -8.0 °F 72% 30.45 in 10.0 mi North 11.5 mph - N/A   Scattered Clouds
1:53 AM -2.9 °F -22.4 °F -9.0 °F 75% 30.45 in 10.0 mi North 13.8 mph - N/A   Clear
2:53 AM -2.9 °F -24.4 °F -11.0 °F 68% 30.47 in 10.0 mi North 17.3 mph - N/A   Partly Cloudy
3:53 AM -5.1 °F -26.6 °F -14.1 °F 65% 30.48 in 10.0 mi North 16.1 mph - N/A   Partly Cloudy
4:53 AM -6.0 °F -27.7 °F -16.1 °F 62% 30.50 in 10.0 mi North 16.1 mph - N/A   Overcast
5:53 AM -6.0 °F -26.3 °F -15.0 °F 65% 30.53 in 10.0 mi North 13.8 mph - N/A   Overcast
6:53 AM -7.1 °F -27.6 °F -16.1 °F 65% 30.57 in 10.0 mi North 13.8 mph - N/A   Overcast
7:53 AM -8.0 °F -31.0 °F -18.0 °F 61% 30.58 in 10.0 mi North 17.3 mph - N/A   Overcast
8:53 AM -8.0 °F -28.8 °F -18.9 °F 59% 30.63 in 10.0 mi NNW 13.8 mph - N/A   Mostly Cloudy
9:43 AM -7.1 °F -28.4 °F -18.0 °F 59% 30.53 in 10.0 mi North 15.0 mph - N/A   Mostly Cloudy
9:53 AM -7.1 °F -27.6 °F -18.0 °F 59% 30.65 in 10.0 mi North 13.8 mph 21.9 mph N/A   Overcast
10:53 AM -7.1 °F -27.6 °F -18.9 °F 56% 30.67 in 10.0 mi North 13.8 mph 20.7 mph N/A   Mostly Cloudy
11:38 AM -6.0 °F -26.3 °F -18.9 °F 54% 30.55 in 10.0 mi NNW 13.8 mph 21.9 mph N/A   Mostly Cloudy
11:53 AM -6.0 °F -26.3 °F -20.0 °F 51% 30.67 in 10.0 mi NNW 13.8 mph - N/A   Mostly Cloudy
12:53 PM -7.1 °F -29.1 °F -20.9 °F 51% 30.65 in 10.0 mi NNW 16.1 mph - N/A   Clear
1:53 PM -8.0 °F -31.6 °F -23.1 °F 48% 30.65 in 10.0 mi North 18.4 mph - N/A   Clear
2:53 PM -8.0 °F -31.0 °F -22.0 °F 50% 30.66 in 10.0 mi NNW 17.3 mph - N/A   Overcast
3:53 PM -8.0 °F -30.3 °F -20.9 °F 53% 30.66 in 10.0 mi NW 16.1 mph - N/A   Mostly Cloudy
4:53 PM -9.0 °F -31.7 °F -22.0 °F 53% 30.67 in 10.0 mi NNW 16.1 mph - N/A   Overcast
5:35 PM -9.9 °F -32.1 °F -22.0 °F 55% 30.56 in 10.0 mi NNW 15.0 mph - N/A   Overcast
5:44 PM -9.9 °F -32.1 °F -22.0 °F 55% 30.56 in 10.0 mi NNW 15.0 mph - N/A   Overcast
5:53 PM -9.9 °F -32.1 °F -23.1 °F 52% 30.70 in 10.0 mi NW 15.0 mph - N/A   Overcast
6:53 PM -11.0 °F -33.5 °F -23.1 °F 55% 30.69 in 10.0 mi NNW 15.0 mph - N/A   Overcast
7:53 PM -11.9 °F -34.6 °F -24.0 °F 55% 30.71 in 10.0 mi NNW 15.0 mph - N/A   Clear
8:53 PM -13.0 °F -36.0 °F -22.0 °F 64% 30.71 in 10.0 mi NNW 15.0 mph - N/A   Clear
9:53 PM -13.0 °F -33.4 °F -23.1 °F 61% 30.73 in 10.0 mi NW 11.5 mph - N/A   Clear
10:53 PM -13.0 °F -31.3 °F -22.0 °F 64% 30.72 in 10.0 mi NW 9.2 mph - N/A   Clear
11:53 PM -11.9 °F -31.0 °F -22.0 °F 61% 30.71 in 10.0 mi NW 10.4 mph - N/A   Clear